This demonstration page uses our WeatherBlox Daily Observations layout. Learn more.

38.88101, -77.10428

Hourly Observations for November 15, 2016

Temp ( °F °C ) Dew Point ( °F °C ) Humidity (%) Winds ( mph kmh ) Pressure ( in mb ) Visibility ( mi km ) Precip ( " mm )
12:52 am 00:52 Cloudy 49 9.4 41 5 74 74 N 6 9 29.97 1015 10 16.09344 0.001 0.001
1:52 am 01:52 Cloudy 50 10 39 3.9 66 66 N 6 9 29.97 1015 10 16.09344 0 0
2:52 am 02:52 Cloudy with Light Rain 49 9.4 41 5 74 74 NNE 7 11 29.97 1015 10 16.09344 0.001 0.001
3:06 am 03:06 Cloudy with Light Rain 48 9 41 5 76 76 N 3 6 29.97 1015 10 16.09344 0 0
3:17 am 03:17 Cloudy with Light Rain 49 9.4 41 5 74 74 N 3 6 29.97 1015 10 16.09344 0.001 0.001
3:52 am 03:52 Cloudy with Light Rain 49 9.4 42 5.6 77 77 NW 5 7 29.94 1014 10 16.09344 0.001 0.001
4:52 am 04:52 Cloudy 49 9.4 43 6.1 80 80 N 5 7 29.94 1014 10 16.09344 0.001 0.001
5:52 am 05:52 Cloudy with Light Rain 50 10 43 6.1 77 77 N 7 11 29.94 1014 10 16.09344 0.001 0.001
6:52 am 06:52 Cloudy 49 9.4 44 6.7 83 83 NNW 6 9 29.94 1014 10 16.09344 0.001 0.001
7:52 am 07:52 Cloudy 51 10.6 43 6.1 74 74 N 9 15 29.94 1014 10 16.09344 0 0
8:52 am 08:52 Cloudy 53 11.7 42 5.6 66 66 WNW 10 17 29.94 1014 10 16.09344 0 0
9:52 am 09:52 Cloudy 56 13.3 41 5 57 57 N 5 7 29.94 1014 10 16.09344 0 0
10:52 am 10:52 Cloudy 59 15 38 3.3 46 46 N 10 17 29.91 1013 10 16.09344 0 0
11:52 am 11:52 Partly Cloudy 62 16.7 37 2.8 40 40 W 9 15 29.88 1012 10 16.09344 0 0
12:52 pm 12:52 Mostly Cloudy 63 17.2 36 2.2 37 37 W 7 11 29.85 1011 10 16.09344 0 0
1:52 pm 13:52 Mostly Cloudy 65 18.3 23 -5 20 20 N 10 17 29.85 1011 10 16.09344 0 0
2:52 pm 14:52 Mostly Cloudy 63 17.2 34 1.1 34 34 WNW 8 13 29.85 1011 10 16.09344 0 0
3:52 pm 15:52 Mostly Cloudy 62 16.7 35 1.7 37 37 WNW 7 11 29.85 1011 10 16.09344 0 0
4:52 pm 16:52 Mostly Cloudy 60 15.6 33 0.6 36 36 W 6 9 29.85 1011 10 16.09344 0 0
5:52 pm 17:52 Mostly Cloudy 58 14.4 35 1.7 42 42 W 7 11 29.85 1011 10 16.09344 0 0
6:52 pm 18:52 Mostly Cloudy 55 12.8 36 2.2 49 49 WSW 5 7 29.85 1011 10 16.09344 0 0
7:52 pm 19:52 Partly Cloudy 53 11.7 37 2.8 55 55 S 5 7 29.85 1011 10 16.09344 0 0
8:52 pm 20:52 Clear 50 10 38 3.3 63 63 S 5 7 29.85 1011 10 16.09344 0 0
9:52 pm 21:52 Mostly Clear 52 11.1 40 4.4 64 64 WSW 8 13 29.85 1011 10 16.09344 0 0
10:52 pm 22:52 Mostly Clear 52 11.1 39 3.9 61 61 W 7 11 29.88 1012 10 16.09344 0 0
11:52 pm 23:52 Mostly Clear 50 10 39 3.9 66 66 WSW 5 7 29.88 1012 10 16.09344 0 0

Powered by AerisWeather